Regional Weather Roundup
Issued by NWS

Home | Current Version | Previous Version | Text Only | Print | Product List | Glossary On
Versions: 1 2 3 4 5 6 7 8 9 10 11 12 13 14 15 16 17 18 19 20 21 22 23 24 25 26 27 28 29 30 31 32 33 34 35 36 37 38 39 40 41 42 43 44 45 46 47 48 49 50
000
ASUS43 KMPX 120710
RWRMN
WEATHER ROUNDUP FOR MINNESOTA
NATIONAL WEATHER SERVICE TWIN CITIES/CHANHASSEN MN
100 AM CST FRI FEB 12 2016


NOTE: "FAIR" INDICATES FEW OR NO CLOUDS BELOW 12,000 FEET WITH NO
SIGNIFICANT WEATHER AND/OR OBSTRUCTIONS TO VISIBILITY. N/A MEANS
CURRENT SKY AND/OR WEATHER CONDITIONS ARE NOT AVAILABLE.

MNZ060>063-068>070-120800-
   Twin Cities Metro

CITY           SKY/WX    TMP DP  RH WIND       PRES   REMARKS
TWIN CITIES    CLOUDY    14   8  77 W6        30.20F WCI   5
ST PAUL        CLOUDY    15   8  73 W7        30.22F WCI   5
CRYSTAL        CLOUDY    15   8  73 W6        30.19F WCI   6
BLAINE         CLOUDY    16  10  79 W7        30.19F WCI   6
LAKEVILLE      FLURRIES  12   9  85 W6        30.20S WCI   3
EDEN PRAIRIE   CLOUDY    16   8  71 W7        30.20F WCI   6
SOUTH ST PAUL  CLOUDY    15   9  74 W6        30.20F WCI   7
LAKE ELMO      CLOUDY    16  10  79 W6        30.19F WCI   7
$$
MNZ001>005-007-008-013>017-022>024-027-028-120800-
   Northwest Minnesota

CITY           SKY/WX    TMP DP  RH WIND       PRES   REMARKS
BEMIDJI        CLEAR      1  -4  78 NW10      30.20R WCI -14
HALLOCK        CLEAR      1  -6  71 N15       30.33R WCI -18
ROSEAU         CLEAR     -4  -9  77 NW8       30.27R WCI -19
WARROAD        CLEAR     -2  -8  78 NW12      30.25R WCI -20
THIEF RVR FALL CLEAR      1  -2  85 NW15      30.28R WCI -18
CROOKSTON      PTCLDY     5   0  78 N15       30.33R WCI -13
FOSSTON        PTCLDY     1  -2  85 NW8       30.26R WCI -12
DETROIT LAKES  CLOUDY    10   5  79 NW12      30.25R WCI  -4
MOORHEAD       CLOUDY     9   5  85 N12       30.32R WCI  -6
PARK RAPIDS    MOCLDY     8   0  69 NW16      30.19S WCI -10
MAHNOMEN       PTSUNNY    3  -1  83 N12       30.26R WCI -14
$$
MNZ006-009>011-018-025>026-120800-
   North Central Minnesota

CITY           SKY/WX    TMP DP  RH WIND       PRES   REMARKS
BAUDETTE       CLEAR     -1  -9  68 NW14      30.20R WCI -20
FLAG ISLAND    PTCLDY    -4  -9  77 NW16      30.22R WCI -25
INTL FALLS     CLEAR      0  -8  69 NW10      30.15R WCI -16
WASKISH        CLEAR      0  -4  85 W8        30.21R WCI -15
LONGVILLE      FLURRIES   9   1  72 NW9       30.18S WCI  -5
GRAND RAPIDS   CLOUDY     7   1  78 NW15      30.15R WCI -11
CRANE LAKE     CLEAR      1  -6  71 NW5       30.14R WCI  -8
ORR            CLEAR      0  -8  71 NW8       30.10R WCI -15
COOK           CLEAR      1  -6  71 W10       30.12S WCI -14
WALKER         PTSUNNY    7  -1  71 NW14G22   30.19S WCI -10
$$
MNZ012-019>021-037-120800-
   Northeast Minnesota

CITY           SKY/WX    TMP DP  RH WIND       PRES   REMARKS
DULUTH         CLOUDY     8   0  69 NW14      30.08F WCI  -8
ELY            CLEAR      3  -2  78 NW7G17    30.06S WCI  -9
HIBBING        PTCLDY     3  -3  76 NW21G28   30.11S WCI -18
EVELETH        CLEAR      5  -2  72 NW17      30.11R WCI -14
DULUTH HARBOR  PTCLDY    12   1  62 NW18      30.17S WCI  -5
TWO HARBORS    CLEAR     10   1  67 W7G20     30.07S WCI   0
SILVER BAY     PTCLDY    10   0  61 W9G18     30.05S WCI  -2
GRAND MARAIS     N/A      8  -1  66 W6        30.07S WCI  -2
G MARAIS ARPRT PTCLDY     1  -6  71 W9        29.93F WCI -14
$$
MNZ029>031-032-039>041-046>048-054>057-064-120800-
   West Central Minnesota

CITY           SKY/WX    TMP DP  RH WIND       PRES   REMARKS
FERGUS FALLS   CLOUDY     7   3  85 NW9       30.31R WCI  -7
WHEATON        MOCLDY     9   7  92 W7        30.32R WCI  -3
MORRIS         CLEAR      9   3  78 NW12      30.26R WCI  -6
ALEXANDRIA     CLEAR      8   2  76 NW7       30.21S WCI  -3
ELBOW LAKE     CLOUDY     6   3  87 W7        30.26S WCI  -5
WADENA         CLOUDY     7   1  78 W6        30.21S WCI  -3
GLENWOOD       PTCLDY     9   5  85 W9        30.22S WCI  -5
APPLETON       CLOUDY    12   9  85 NW9       30.28R WCI   0
BENSON         MOCLDY    10   7  85 N8        30.26R WCI  -1
ORTONVILLE     CLOUDY    10   5  79 N10       30.27S WCI  -3
MADISON        CLEAR     12   9  85 N13       30.28R WCI  -3
WILLMAR        CLOUDY    16  12  86 NW12      30.24R WCI   3
$$
MNZ033>034-036-042>043-049>051-058-059-120800-
   Central Minnesota

CITY           SKY/WX    TMP DP  RH WIND       PRES   REMARKS
ST CLOUD       CLOUDY    12   7  80 NW10      30.20S WCI  -1
SAUK CENTRE    FAIR       9   5  84 NW8       30.22R WCI  -4
PAYNESVILLE    CLOUDY    14  10  86 W8        30.22R WCI   2
AITKIN         CLOUDY    12   0  57 NW5       30.16S WCI   4
PINE RIVER     CLOUDY     9   3  78 NW8       30.21S WCI  -4
BRAINERD       CLOUDY    10   2  69 NW12      30.19S WCI  -5
STAPLES        CLOUDY     7   1  78 NW8       30.21R WCI  -6
LONG PRAIRIE   FAIR       9   3  78 W10       30.21R WCI  -6
LITTLE FALLS   CLOUDY    12   3  67 NW6       30.21S WCI   3
LITCHFIELD     CLOUDY    16  12  86 NW7       30.21F WCI   6
BUFFALO        CLOUDY    14  10  82 W7        30.21S WCI   4
MAPLE LAKE     CLOUDY    15  11  85 W6        30.21S WCI   6
$$
MNZ037-044-045-052-053-120800-
   East Central Minnesota

CITY           SKY/WX    TMP DP  RH WIND       PRES   REMARKS
PRINCETON      CLOUDY    16  10  79 W8        30.19S WCI   5
MORA           CLOUDY    14   7  73 NW9       30.19F WCI   2
CAMBRIDGE      FLURRIES  16   9  73 CALM      30.17F
RUSH CITY      CLOUDY    14  10  81 W7        30.18F WCI   4
MOOSE LAKE     CLOUDY    12   1  62 NW7       30.15S WCI   2
HINCKLEY       CLOUDY    16   7  67 NW8       30.17S WCI   5
CLOQUET        CLOUDY     9   0  66 W9G17     30.12R WCI  -5
MCGREGOR       CLOUDY    10   3  72 NW12G17   30.16S WCI  -4
$$
MNZ071>073-080-081-089-090-097-098-120800-
   Southwest Minnesota

CITY           SKY/WX    TMP DP  RH WIND       PRES   REMARKS
MONTEVIDEO     CLOUDY    12  10  92 N14       30.27S WCI  -3
GRANITE FALLS  FLURRIES  17  14  88 NW9       30.27S WCI   5
CANBY          MOCLDY    16  13  88 W10       30.28R WCI   4
MARSHALL       FLURRIES  15  11  83 NW12      30.25R WCI   2
REDWOOD FALLS  CLOUDY    17  12  80 NW14      30.23S WCI   3
OLIVIA         FLURRIES  18  14  86 NW12      30.23R WCI   5
PIPESTONE      CLOUDY    18  10  73 N8        30.21S WCI   7
WINDOM         FLURRIES  12   9  85 W6        30.20S WCI   3
WORTHINGTON    CLOUDY    16  10  79 NW10      30.21S WCI   3
JACKSON        FLURRIES  14  10  85 NW7       30.20S WCI   4
TRACY          CLOUDY    17  14  88 N13       30.23S WCI   4
SLAYTON        FLURRIES  17  15  95 N16       30.21S WCI   1
$$
MNZ065>067-074>077-082>085-091>093-120800-
   South Central Minnesota

CITY           SKY/WX    TMP DP  RH WIND       PRES   REMARKS
MANKATO        CLOUDY    16  10  79 W7        30.21S WCI   6
NEW ULM        FLURRIES  16  12  86 NW8       30.22R WCI   5
ST JAMES       FLURRIES  16  12  86 W7        30.23R WCI   6
FAIRMONT       CLOUDY    16   9  73 W12       30.21S WCI   3
GLENCOE        CLOUDY    16  13  88 W6        30.21S WCI   8
FARIBAULT      LGT SNOW  14  10  85 W6        30.20F WCI   5
OWATONNA       LGT SNOW  12   9  85 W7        30.19F WCI   2
WASECA         FLURRIES  14  12  92 W8        30.21F WCI   3
ALBERT LEA     MOCLDY    12  10  92 W6        30.18F WCI   3
$$
MNZ078>079-086>088-094>096-120800-
   Southeast Minnesota

CITY           SKY/WX    TMP DP  RH WIND       PRES   REMARKS
ROCHESTER      CLOUDY    12   7  80 W9        30.17F WCI   0
RED WING       CLOUDY    14   9  79 NW3       30.21S
STANTON        FLURRIES  15  10  78 W5        30.19F WCI   8
DODGE CENTER   FLURRIES  12   9  85 W7        30.16F WCI   2
WINONA         LGT SNOW  16  10  79 W6        30.22F WCI   7
AUSTIN         FLURRIES  12   9  85 W7        30.19S WCI   2
PRESTON        FLURRIES  11   6  78 W7        30.18S WCI   0
$$
ABBREVIATIONS USED IN REMARKS
   TC - TEMPERATURES IN CELSIUS
  WCI - WIND CHILL INDEX
   HX - HEAT INDEX
  VSB - VISIBILITY
$$



USA.gov is the U.S. government's official web portal to all federal, state and local government web resources and services.